Погода в Кыбартаи

Поиск расширенной информации на нашем сайте:

Полезная информация:

Новости сайта



02.01.2020
Опубликован Долгосрочный прогноз погоды по городам России и ближнего зарубежья на январь 2020 года.
Карты: Прогноз на январь и февраль 2020 года, Сравнение прогнозируемой аномалии приземной температуры воздуха на январь 2020 года по разным моделям.




Погода в Кыбартаи - сегодня

Время (UTC), дата Ветер
(°,м/с) 
Видим.   Явления Облачность Т
(°С)
Тd
(°С)
f(%) Тe
(°С)
Pmin
(гПа)
dP
(гПа)
Po
(мм)
O2
(г/м3)
Тmin Tmax R s Состояние
почвы
12 09.08.20 350 (С) 3-6{11}  20000 м    1/0 
+28.9 +14.2 41 +36  1019.2  -1.2  759  274           
15 09.08.20 030 (СВ) 2-4{13}  20000 м    ясно 
+27.8 +16.1 49 +38  1018.2  -1  759  274      0.7     
18 09.08.20 350 (С) 1-2{07}  20000 м    ясно 
+25.2 +15.4 55 +34  1018.4  -0.1  759  277    +29.9  0.7     
21 09.08.20 тихо () -0{05}  20000 м    ясно 
+18.6 +15.7 83 +28  1019.1  0.5  759  283           
00 10.08.20 230 (ЮЗ) 1-2{02}  20000 м    ясно 
+16.1 +14.5 90 +25  1019.1  759  286           
03 10.08.20 230 (ЮЗ) 1-1{02}  17000 м    ясно 
+14.9 +13.8 93 +22  1019.4  0.2  759  287           
06 10.08.20 тихо () -2{02}  20000 м    5/0 2000 м 
+21.4 +16.5 74 +32  1019.6  0.4  759  280  +14.4         
09 10.08.20 060 (СВ) 2-3{04}  20000 м    ясно 
+27.2 +16.4 52 +38  1019.3  -0.2  759  275           
12 10.08.20 300 (СЗ) 3-6{06}  20000 м    3/0 
+29.1 +14 40 +36  1018.4  -0.8  759  274           
15 10.08.20 360 (С) 4-7{09}  20000 м    1/0 
+28.3 +14.1 42 +35  1017.9  -0.5  758  274           
18 10.08.20 340 (С) 2-3{08}  20000 м    ясно 
+24.4 +16.3 61 +35  1018.2  -0.1  758  277    +29.4       
21 10.08.20 030 (СВ) 3-4{04}  16000 м    ясно 
+19.6 +14.3 71 +27  1019.9  1.7  760  283           
00 11.08.20 030 (СВ) 2-2{04}  20000 м    ясно 
+15.5 +10.2 71 +17  1020.7  0.6  760  288           
03 11.08.20 360 (С) 1-2{03}  20000 м    ясно 
+13.1 +10.7 85 +16  1021  0.3  760  290           
06 11.08.20 050 (СВ) 3-5{05}  20000 м    1/0 
+16.8 +12.2 74 +21  1021.9  761  287  +12.5         
09 11.08.20 040 (СВ) 5-9{09}  19000 м    ясно 
+21.2 +8.5 44 +21  1022.2  0.4  761  283           
12 11.08.20 030 (СВ) 4-7{10}  19000 м    ясно 
+23.3 +8.2 38 +23  1021.9  -0.3  761  281           
15 11.08.20 000 (С) 5-9{09}  20000 м    ясно 
+24 +8.7 38 +24  1021.2  -0.7  761  280           
18 11.08.20 360 (С) 1-2{09}  20000 м    ясно 
+20.7 +9.9 50 +21  1021.1  0.1  761  283    +24.4       
21 11.08.20 тихо () -0{02}  20000 м    ясно 
+14.2 +10.1 76 +15  1022.1  0.9  761  290           
00 12.08.20 тихо () -0{01}  20000 м    ясно 1500 м 
+12.4 +10 85 +13  1022.9  0.7  762  292           
03 12.08.20 тихо () -0{01}  20000 м    5/0 
+9.8 +8.6 92 +10  1022.7  -0.3  762  295           
06 12.08.20 070 (В) 3-4{04}  20000 м    ясно 
+14.8 +10.4 75 +16  1023.2  0.6  762  289  +9.3         
09 12.08.20 060 (СВ) 3-5{06}  20000 м    6/0 
+20.3 +8.9 48 +20  1023.1  0.1  762  284           
12 12.08.20 050 (СВ) 2-5{07}  19000 м    3/3 1500 м 
+20.9 +7.1 41 +21  1022.7  -0.4  762  284           
Время (UTC), дата Ветер
(°,м/с) 
Видим.   Явления Облачность Т
(°С)
Тd
(°С)
f(%) Тe
(°С)
Pmin
(гПа)
dP
(гПа)
Po
(мм)
O2
(г/м3)
Тmin Tmax R s Состояние
почвы

Для получения пояснительной информации подведите курсор к названию столбца.

ПОГОДА в Кыбартаи - архив

Всё, что Вы хотите узнать о погоде в Кыбартаи - удобно и подробно!

Выберите нужную дату (начиная с 1 января 2019* года) и нажмите кнопку "Найти".
Будут отображены архивные сводки погоды по пункту Кыбартаи, начиная с указанной даты.


Отображать данные в формате CSV (для использования в таблицах Excel)


Внимание! Наш архив погоды предназначен исключительно для личного некоммерческого использования в познавательных целях. Если Вам необходимы официальные справки о состоянии погоды (для производственных, юридических, коммерческих и т.п. целей), обращайтесь в органы Росгидромета.

*Примечание: данная дата относится к архиву по метеостанциям СССР (Россия, СНГ, Балтия).
Архив по метеостанциям Зарубежной Европы и Азии (кроме Китая) хранится 10 дней, по другим регионам земного шара (Китай, Африка, Америка, Австралия, Океания) - 1 день.

Кыбартаи - район местоположения метеостанции


Название, широта, долгота, высота метеостанции:
Кыбартаи 54.6°ш. 22.8°д. 59 м над ур. моря [Литва]

Дополнительная информация

В oтличие oт бoльшинства пoгoдных сайтoв мы публикуем пoдрoбную метеoинфoрмацию в детальнoм прoфессиoнальнoм фoрмате.

Характеристики температуры и влажнoсти вoздуха измеряются на высoте 2 м в тени вдали oт зданий и деревьев.
Скoрoсть ветра измеряется на высoте 10 м (на урoвне рoста челoвека скoрoсть ветра ниже в 1.5-2 раза). Если метеoстанция нахoдится в гoрoде или в лесу, тo скoрoсть ветра занижена на 2-4 м/с пo сравнению с oткрытым местoм. Скoрoсть ветра над акватoриями крупных рек и oзёр, а также на вершинах хoлмoв на 2-5 м/с выше, чем в oбычных услoвиях.
Атмoсфернoе давление в разных тoчках местнoсти мoжет значительнo oтличаться oт давления на метеoстанции, в зависимoсти oт услoвий рельефа (при пoдъёме на 10 м давление пoнижается примернo на 1 мм рт.ст.).